When you browse on this site, cookies collect data to enhance your experience and personalize the content and advertising you see.
Visit our Privacy Policy to learn more. By continuing to use the site, you agree to this use of cookies and data.
  • In Switzerland
  • List of Countries
  • For 7 days
  • Water Temperature
  • Weather Map
  • Weather Widgets
  • user-avatar
    Login

    Hourly Weather Limoges

    Today, 30 May, Saturday

    Time Temperature Precipitation Wind Pressure Humidity
    00:00 +13°C° 0 mm 2 mps 734 mmHg 69%
    01:00 +13°C° 0 mm 2 mps 733 mmHg 72%
    02:00 +12°C° 0 mm 2 mps 733 mmHg 75%
    03:00 +12°C° 0 mm 1 mps 733 mmHg 78%
    04:00 +13°C° 0 mm 1 mps 733 mmHg 76%
    05:00 +14°C° 0 mm 1 mps 733 mmHg 74%
    06:00 +15°C° 0 mm 1 mps 733 mmHg 72%
    07:00 +18°C° 0 mm 1 mps 733 mmHg 64%
    08:00 +21°C° 0 mm 1 mps 734 mmHg 57%
    09:00 +23°C° 0 mm 1 mps 734 mmHg 49%
    10:00 +24°C° 0 mm 1 mps 733 mmHg 45%
    11:00 +25°C° 0 mm 2 mps 733 mmHg 41%
    12:00 +26°C° 0 mm 2 mps 733 mmHg 37%
    13:00 +26°C° 0 mm 2 mps 733 mmHg 37%
    14:00 +26°C° 0 mm 3 mps 732 mmHg 38%
    15:00 +26°C° 0 mm 3 mps 732 mmHg 38%
    16:00 +25°C° 0 mm 3 mps 732 mmHg 44%
    17:00 +22°C° 0 mm 3 mps 731 mmHg 49%
    18:00 +21°C° 0 mm 3 mps 731 mmHg 55%
    19:00 +19°C° 0 mm 3 mps 731 mmHg 62%
    20:00 +17°C° 0 mm 2 mps 732 mmHg 69%
    21:00 +15°C° 0 mm 2 mps 732 mmHg 76%
    22:00 +15°C° 0 mm 2 mps 732 mmHg 75%
    23:00 +14°C° 0 mm 2 mps 732 mmHg 74%

    Tomorrow, 31 May, Sunday

    Time Temperature Precipitation Wind Pressure Humidity
    00:00 +13°C° 0 mm 2 mps 732 mmHg 73%
    01:00 +12°C° 0 mm 2 mps 731 mmHg 76%
    02:00 +12°C° 0 mm 2 mps 731 mmHg 78%
    03:00 +10°C° 0 mm 2 mps 731 mmHg 81%
    04:00 +12°C° 0 mm 2 mps 731 mmHg 78%
    05:00 +13°C° 0 mm 2 mps 731 mmHg 75%
    06:00 +14°C° 0 mm 1 mps 731 mmHg 72%
    07:00 +18°C° 0 mm 1 mps 731 mmHg 65%
    08:00 +21°C° 0 mm 1 mps 732 mmHg 57%
    09:00 +23°C° 0 mm 1 mps 732 mmHg 49%
    10:00 +25°C° 0 mm 2 mps 732 mmHg 45%
    11:00 +26°C° 0 mm 2 mps 732 mmHg 41%
    12:00 +27°C° 0 mm 2 mps 732 mmHg 37%
    13:00 +27°C° 0 mm 2 mps 731 mmHg 37%
    14:00 +27°C° 0 mm 2 mps 731 mmHg 38%
    15:00 +27°C° 0 mm 2 mps 731 mmHg 38%
    16:00 +26°C° 0 mm 3 mps 731 mmHg 44%
    17:00 +24°C° 0 mm 3 mps 730 mmHg 50%
    18:00 +22°C° 0 mm 3 mps 730 mmHg 55%
    19:00 +20°C° 0 mm 3 mps 730 mmHg 59%
    20:00 +18°C° 0 mm 2 mps 731 mmHg 63%
    21:00 +16°C° 0 mm 2 mps 731 mmHg 67%
    22:00 +15°C° 0 mm 2 mps 731 mmHg 71%
    23:00 +15°C° 0 mm 2 mps 731 mmHg 76%

    Day after tomorrow, 1 June, Monday

    Time Temperature Precipitation Wind Pressure Humidity
    00:00 +14°C° 0 mm 1 mps 731 mmHg 81%
    01:00 +13°C° 0 mm 1 mps 730 mmHg 85%
    02:00 +13°C° 0 mm 1 mps 730 mmHg 89%
    03:00 +12°C° 0 mm 1 mps 730 mmHg 93%
    04:00 +13°C° 0.1 mm 1 mps 730 mmHg 93%
    05:00 +13°C° 0.1 mm 0 mps 731 mmHg 92%
    06:00 +14°C° 0.1 mm 0 mps 731 mmHg 92%
    07:00 +19°C° 0 mm 1 mps 731 mmHg 80%
    08:00 +21°C° 0 mm 1 mps 731 mmHg 69%
    09:00 +24°C° 0 mm 1 mps 732 mmHg 57%
    10:00 +25°C° 0.2 mm 1 mps 732 mmHg 54%
    11:00 +26°C° 0.2 mm 1 mps 732 mmHg 52%
    12:00 +27°C° 0.2 mm 1 mps 732 mmHg 49%
    13:00 +27°C° 0.1 mm 1 mps 732 mmHg 51%
    14:00 +26°C° 0.1 mm 1 mps 731 mmHg 54%
    15:00 +25°C° 0.1 mm 2 mps 731 mmHg 57%
    16:00 +24°C° 0.2 mm 2 mps 731 mmHg 66%
    17:00 +21°C° 0.2 mm 2 mps 731 mmHg 75%
    18:00 +20°C° 0.2 mm 2 mps 731 mmHg 84%
    19:00 +18°C° 0.1 mm 2 mps 731 mmHg 87%
    20:00 +16°C° 0.1 mm 1 mps 732 mmHg 90%
    21:00 +15°C° 0.1 mm 1 mps 732 mmHg 93%
    22:00 +14°C° 0 mm 1 mps 732 mmHg 93%
    23:00 +14°C° 0 mm 1 mps 732 mmHg 93%

    2 June, Tuesday

    Time Temperature Precipitation Wind Pressure Humidity
    00:00 +14°C° 0 mm 1 mps 731 mmHg 93%
    01:00 +12°C° 0 mm 0 mps 731 mmHg 93%
    02:00 +12°C° 0 mm 0 mps 731 mmHg 93%
    03:00 +12°C° 0 mm 0 mps 732 mmHg 93%
    04:00 +13°C° 0 mm 0 mps 732 mmHg 92%
    05:00 +14°C° 0 mm 0 mps 732 mmHg 90%
    06:00 +15°C° 0 mm 0 mps 732 mmHg 88%
    07:00 +17°C° 0 mm 0 mps 732 mmHg 76%
    08:00 +20°C° 0 mm 0 mps 733 mmHg 64%
    09:00 +23°C° 0 mm 0 mps 733 mmHg 52%
    10:00 +27°C° 0 mm 1 mps 733 mmHg 47%
    11:00 +28°C° 0 mm 1 mps 732 mmHg 42%
    12:00 +29°C° 0 mm 1 mps 732 mmHg 37%
    13:00 +29°C° 0 mm 1 mps 732 mmHg 37%
    14:00 +29°C° 0 mm 2 mps 731 mmHg 37%
    15:00 +29°C° 0 mm 2 mps 731 mmHg 37%
    16:00 +27°C° 0 mm 2 mps 731 mmHg 45%
    17:00 +26°C° 0 mm 2 mps 730 mmHg 52%
    18:00 +25°C° 0 mm 2 mps 730 mmHg 60%
    19:00 +21°C° 0 mm 2 mps 730 mmHg 68%
    20:00 +20°C° 0 mm 1 mps 730 mmHg 76%
    21:00 +18°C° 0 mm 1 mps 730 mmHg 85%
    22:00 +16°C° 0 mm 1 mps 729 mmHg 87%
    23:00 +15°C° 0 mm 1 mps 729 mmHg 89%

    3 June, Wednesday

    Time Temperature Precipitation Wind Pressure Humidity
    00:00 +15°C° 0 mm 1 mps 728 mmHg 91%
    01:00 +15°C° 0 mm 1 mps 728 mmHg 92%
    02:00 +14°C° 0 mm 1 mps 727 mmHg 92%
    03:00 +13°C° 0 mm 0 mps 727 mmHg 93%
    04:00 +14°C° 0 mm 0 mps 727 mmHg 89%
    05:00 +15°C° 0 mm 0 mps 727 mmHg 85%
    06:00 +16°C° 0 mm 0 mps 726 mmHg 82%
    07:00 +18°C° 0 mm 0 mps 726 mmHg 73%
    08:00 +23°C° 0 mm 1 mps 726 mmHg 65%
    09:00 +25°C° 0 mm 1 mps 726 mmHg 57%
    10:00 +25°C° 0.2 mm 1 mps 726 mmHg 55%
    11:00 +26°C° 0.2 mm 2 mps 725 mmHg 53%
    12:00 +26°C° 0.2 mm 2 mps 725 mmHg 52%
    13:00 +23°C° 1.3 mm 2 mps 724 mmHg 66%
    14:00 +20°C° 1.3 mm 2 mps 724 mmHg 80%
    15:00 +18°C° 1.3 mm 1 mps 723 mmHg 95%
    16:00 +18°C° 0.5 mm 1 mps 723 mmHg 96%
    17:00 +18°C° 0.5 mm 1 mps 723 mmHg 97%
    18:00 +15°C° 0.5 mm 0 mps 722 mmHg 97%
    19:00 +15°C° 0.3 mm 0 mps 722 mmHg 98%
    20:00 +15°C° 0.3 mm 0 mps 722 mmHg 98%
    21:00 +16°C° 0.3 mm 1 mps 722 mmHg 98%
    22:00 +16°C° 0.3 mm 1 mps 722 mmHg 98%
    23:00 +15°C° 0.3 mm 1 mps 722 mmHg 98%

    4 June, Thursday

    Time Temperature Precipitation Wind Pressure Humidity
    00:00 +15°C° 0.3 mm 1 mps 722 mmHg 98%
    01:00 +15°C° 0.3 mm 1 mps 721 mmHg 98%
    02:00 +15°C° 0.3 mm 1 mps 721 mmHg 99%
    03:00 +15°C° 0.3 mm 1 mps 721 mmHg 99%
    04:00 +15°C° 0.5 mm 1 mps 721 mmHg 99%
    05:00 +15°C° 0.5 mm 1 mps 721 mmHg 99%
    06:00 +15°C° 0.5 mm 1 mps 721 mmHg 99%
    07:00 +16°C° 0.1 mm 2 mps 721 mmHg 93%
    08:00 +16°C° 0.1 mm 2 mps 721 mmHg 87%
    09:00 +17°C° 0.1 mm 2 mps 721 mmHg 81%
    10:00 +18°C° 0 mm 3 mps 721 mmHg 74%
    11:00 +18°C° 0 mm 3 mps 721 mmHg 67%
    12:00 +18°C° 0 mm 3 mps 721 mmHg 60%
    13:00 +18°C° 0 mm 3 mps 721 mmHg 60%
    14:00 +18°C° 0 mm 3 mps 721 mmHg 61%
    15:00 +17°C° 0 mm 2 mps 721 mmHg 61%
    16:00 +17°C° 0 mm 2 mps 721 mmHg 65%
    17:00 +17°C° 0 mm 2 mps 721 mmHg 68%
    18:00 +18°C° 0 mm 1 mps 721 mmHg 72%
    19:00 +16°C° 0.9 mm 1 mps 721 mmHg 81%
    20:00 +15°C° 0.9 mm 1 mps 721 mmHg 89%
    21:00 +13°C° 0.9 mm 2 mps 721 mmHg 98%
    22:00 +13°C° 1.5 mm 1 mps 721 mmHg 98%
    23:00 +13°C° 1.5 mm 1 mps 721 mmHg 98%
    Show more